User: anonymous   Login
Location: Carrer del Canonge
(41.4901°N, 2.2931°E)
Time: 02:56:20
(UTC+00:00)
Language:

IRS-1A Rocket - Orbit

View from above orbital plane
View from above orbital plane
View from above satellite
View from above satellite

Ground track
Ground track

The orbit data is extracted from the following two-line orbital elements,

1 18961U 88021B   20329.11381096 -.00000164 +00000-0 -77962-4 0  9997
2 18961 099.2319 011.3015 0055289 022.5911 030.0811 14.00788549671238
Epoch (UTC): 24 November 2020 02:43:53
Eccentricity: 0.0055289
inclination: 99.2319°
perigee height: 851 km
apogee height: 931 km
right ascension of ascending node: 11.3015°
argument of perigee: 22.5911°
revolutions per day: 14.00788549
mean anomaly at epoch: 30.0811°
orbit number at epoch: 67123

The dashed part of the orbit path shows where the satellite is in the earth's shadow,  

DLR